[[{"header":{"parameterUnit":"m.s-1","parameterCategory":1,"la1":30.2991,"la2":30.254,"lo1":-89.0895,"lo2":-89.0444,"dy":0.0017,"dx":0.0017,"nx":28,"ny":28,"refTime":"2025-04-11T09:00:00:Z","depth":0,"parameterNumber":2,"parameterNumberName":"U-component_of_WINDS"},"data":[0,0,0,0,0,0,0,0,0,0,0,0,0,0,0,0,0,0,0,0,0,0,0,0,0,0,0,0,0,0,0,0,0,0,0,0,0,0,0,0,0,0,0,0,0,0,0,0,0,0,0,0,0,0,0,0,0,0,4.4544,4.4544,0,4.4593,4.4593,4.4594,4.4481,4.4477,4.4474,4.447,4.4521,4.4526,4.4531,0,0,0,0,0,0,0,0,0,0,0,0,0,4.4355,4.4359,4.4544,4.4544,4.4545,4.4592,4.4593,4.4594,4.4482,4.4477,4.4473,4.4469,4.452,4.4525,4.4531,0,0,0,0,0,0,0,0,0,0,0,0,0,4.4424,4.436,4.4543,4.4495,4.4491,4.4592,4.4593,4.4594,4.4483,4.4477,4.4472,4.4467,4.4518,4.4525,4.4532,4.4683,0,0,4.4553,4.4556,0,0,0,0,0,0,0,0,4.442,4.4431,4.4501,4.4498,4.4494,4.4525,4.4545,4.4624,4.4484,4.4486,4.447,4.4464,4.4527,4.4533,4.4554,4.4686,4.4688,4.4554,4.4558,4.4561,4.4563,0,0,0,0,0,0,0,4.4415,4.4428,4.4563,4.4502,4.4498,4.4471,4.4475,4.456,4.4536,4.4485,4.4477,4.4484,4.4524,4.4547,4.4554,4.4689,4.4554,4.456,4.4564,4.4567,4.495,4.4956,0,0,0,0,0,0,4.4417,4.4425,4.4561,4.4564,4.4443,4.4479,4.4483,4.4521,4.4535,4.4532,4.4489,4.4479,4.4538,4.4546,4.4556,4.4736,4.4561,4.4568,4.4572,4.4944,4.4951,4.4958,0,0,0,0,0,0,4.4413,4.443,4.4559,4.4493,4.4507,4.4488,4.4531,4.4524,4.4548,4.4538,4.4533,4.4517,4.4534,4.4546,4.4653,4.4736,4.4571,4.4577,4.4937,4.4946,4.4955,4.5097,0,0,0,0,0,0,4.4408,4.4429,4.4486,4.4495,4.4511,4.4656,4.4536,4.4529,4.456,4.4548,4.4563,4.456,4.4531,4.4643,4.466,4.4743,4.4583,4.493,4.4941,4.4952,4.5085,4.511,4.5131,0,0,0,0,0,4.4402,4.4524,4.449,4.4507,4.4582,4.4661,4.467,4.4633,4.4567,4.4625,4.4619,4.456,4.4724,4.4655,4.4673,4.476,4.4924,4.4938,4.4951,4.5075,4.5105,4.5131,0,0,0,0,0,0,4.4525,4.4524,4.4486,4.4614,4.4639,4.4641,4.4713,4.4666,4.471,4.4696,4.4649,4.4654,4.4771,4.4775,4.4698,4.4908,4.4813,4.4831,4.4901,4.493,4.4952,4.4949,4.4589,0,0,0,0,0,4.4568,4.4632,4.4627,4.4741,4.4755,4.4732,4.4765,4.4735,4.4758,4.4768,4.4769,4.4795,4.4852,4.4891,4.4943,4.5085,4.5088,4.5153,4.5177,4.5196,4.5212,4.529,4.5319,4.5002,4.5001,4.5001,0,0,4.4655,4.4663,4.4706,4.4766,4.4781,4.485,4.4742,4.4818,4.4868,4.4779,4.4881,4.4884,4.4909,4.5035,4.509,4.5043,4.53,4.5213,4.5228,4.5234,4.5307,4.5337,4.5363,4.5011,4.5009,4.5008,0,0,4.4851,4.4862,4.4959,4.4977,4.5002,4.4986,4.501,4.502,4.5019,4.512,4.5056,4.5115,4.5215,4.5236,4.526,4.5466,4.5414,4.5484,4.5605,4.5682,4.5707,4.5729,4.5805,4.5832,4.55,4.55,4.5501,0,4.4957,4.5057,4.5015,4.5097,4.5126,4.5049,4.5148,4.5167,4.5208,4.5231,4.5176,4.5301,4.5312,4.5443,4.5494,4.5515,4.5542,4.5483,4.5707,4.5728,4.5748,4.582,4.5848,4.5509,4.5508,4.5507,4.5506,0,4.5188,4.5258,4.5334,4.5376,4.5413,4.5503,4.5476,4.5519,4.5486,4.5477,4.5583,4.5594,4.5648,4.5676,4.5645,4.5804,4.5774,4.5714,4.5618,4.5788,4.5854,4.5881,4.5521,4.5518,4.5515,4.5513,0,0,4.5462,4.5481,4.5509,4.5529,4.5551,4.5605,4.5692,4.5745,4.5785,4.5815,4.5889,4.5976,4.5921,4.5948,4.5918,4.5985,4.6151,4.5917,4.5917,4.5962,4.633,4.6377,4.6409,4.6116,4.6121,4.6125,4.6329,0,4.5657,4.5806,4.5772,4.5921,4.5986,4.5915,4.5991,4.6014,4.6008,4.6064,4.6057,4.612,4.6042,4.6059,4.6122,4.6117,4.6224,4.6102,4.6186,4.6189,4.6183,4.6443,4.6492,4.6683,4.6354,4.6359,4.6362,0,4.5904,4.5945,4.6101,4.6115,4.6141,4.621,4.6257,4.6311,4.6336,4.6327,4.6359,4.6316,4.6404,4.6307,4.6428,4.6346,4.6378,4.6381,4.6388,4.6395,4.6287,4.646,4.6743,4.6773,4.6402,4.6399,4.6396,0,4.6091,4.6186,4.6291,4.631,4.6328,4.6379,4.6389,4.6408,4.6443,4.6485,4.6507,4.6558,4.6587,4.6628,4.6601,4.6532,4.6729,4.6628,4.6725,4.6726,4.6771,4.6769,4.7065,4.6789,4.6788,4.6788,4.6787,0,4.6314,4.6412,4.6376,4.6441,4.655,4.651,4.6619,4.6621,4.6639,4.6705,4.6645,4.6708,4.6668,4.6728,4.6708,4.6813,4.6826,4.6822,4.6816,4.6829,4.6829,4.685,4.6837,4.6795,4.6794,4.6792,4.6791,0,4.6542,4.6521,4.6632,4.6641,4.6645,4.6726,4.6733,4.6795,4.6784,4.6868,4.6885,4.687,4.6938,4.6915,4.6987,4.6973,4.7108,4.7083,4.71,4.7095,4.7194,4.7186,4.7516,4.7558,4.7253,4.7256,4.7258,0,4.6686,4.676,4.6777,4.6817,4.6831,4.6895,4.6931,4.6895,4.6935,4.697,4.7028,4.7091,4.7139,4.725,4.7246,4.7302,4.728,4.7391,4.7288,4.7299,4.7284,4.7281,4.7289,4.7413,4.7416,4.7419,4.7421,0,4.6945,4.6931,4.6985,4.7036,4.7081,4.7119,4.7152,4.7188,4.7154,4.7203,4.7271,4.7309,4.7383,4.7447,4.7498,4.7508,4.7461,4.7454,4.748,4.7495,4.7502,4.7502,4.7159,4.7447,4.7444,4.7442,4.7441,4.744,4.7136,4.72,4.7223,4.7285,4.7306,4.7339,4.7398,4.7396,4.7452,4.7511,4.7486,4.7566,4.7591,4.7654,4.7672,4.7735,4.7692,4.7729,4.7738,4.7749,4.7763,4.7491,4.7743,4.7743,4.7742,4.7741,4.7741,0,4.7394,4.7405,4.7463,4.7512,4.7562,4.7512,4.7546,4.7592,4.7663,4.769,4.7739,4.7819,4.7881,4.7883,4.7941,4.7991,4.7971,4.8008,4.8004,4.8008,4.7796,4.7769,4.8023,4.8023,4.8023,4.8023,4.8023,4.8023,4.7534,4.764,4.763,4.7746,4.7756,4.7834,4.7859,4.789,4.7911,4.8004,4.8055,4.8055,4.8073,4.8132,4.8187,4.8186,4.8211,4.8257,4.8248,4.8051,4.8023,4.7996,4.797,4.8262,4.8263,4.8455,4.8457,4.8458]},{"header":{"parameterUnit":"m.s-1","parameterCategory":1,"la1":30.2991,"la2":30.254,"lo1":-89.0895,"lo2":-89.0444,"dy":0.0017,"dx":0.0017,"nx":28,"ny":28,"refTime":"2025-04-11T09:00:00:Z","depth":0,"parameterNumber":3,"parameterNumberName":"V-component_of_WINDS"},"data":[0,0,0,0,0,0,0,0,0,0,0,0,0,0,0,0,0,0,0,0,0,0,0,0,0,0,0,0,0,0,0,0,0,0,0,0,0,0,0,0,0,0,0,0,0,0,0,0,0,0,0,0,0,0,0,0,0,0,-3.0403,-3.0404,0,-3.0486,-3.0487,-3.0488,-3.0477,-3.0475,-3.0474,-3.0473,-3.0555,-3.0559,-3.0562,0,0,0,0,0,0,0,0,0,0,0,0,0,-3.0235,-3.0239,-3.0403,-3.0404,-3.0405,-3.0486,-3.0487,-3.0488,-3.0477,-3.0475,-3.0473,-3.0472,-3.0554,-3.0558,-3.0563,0,0,0,0,0,0,0,0,0,0,0,0,0,-3.0312,-3.024,-3.0403,-3.041,-3.0411,-3.0486,-3.0487,-3.0488,-3.0477,-3.0475,-3.0473,-3.0471,-3.0553,-3.0558,-3.0563,-3.0636,0,0,-3.0579,-3.0581,0,0,0,0,0,0,0,0,-3.0308,-3.0318,-3.0408,-3.0409,-3.0411,-3.0469,-3.0458,-3.0538,-3.0478,-3.0452,-3.0472,-3.047,-3.0528,-3.0535,-3.0555,-3.064,-3.0644,-3.0579,-3.0583,-3.0585,-3.0586,0,0,0,0,0,0,0,-3.0303,-3.0315,-3.0436,-3.0409,-3.0411,-3.0408,-3.0417,-3.0473,-3.05,-3.0454,-3.0453,-3.0463,-3.0529,-3.055,-3.0557,-3.0645,-3.0579,-3.0584,-3.0587,-3.0589,-3.0795,-3.0797,0,0,0,0,0,0,-3.0296,-3.031,-3.0433,-3.0438,-3.0353,-3.0413,-3.0422,-3.0452,-3.05,-3.0505,-3.0465,-3.0463,-3.0542,-3.0551,-3.056,-3.0649,-3.0585,-3.059,-3.0593,-3.0792,-3.0795,-3.0798,0,0,0,0,0,0,-3.0292,-3.0307,-3.043,-3.0374,-3.039,-3.0418,-3.0451,-3.0455,-3.0477,-3.0508,-3.0513,-3.0482,-3.0541,-3.0553,-3.0618,-3.0652,-3.0592,-3.0597,-3.079,-3.0793,-3.0796,-3.0828,0,0,0,0,0,0,-3.0287,-3.0306,-3.0334,-3.0375,-3.0393,-3.0487,-3.0454,-3.0458,-3.0486,-3.0483,-3.0525,-3.053,-3.054,-3.061,-3.0623,-3.0658,-3.0601,-3.0787,-3.0791,-3.0795,-3.0824,-3.0832,-3.0839,0,0,0,0,0,-3.0281,-3.0339,-3.0335,-3.035,-3.0429,-3.0489,-3.0499,-3.0509,-3.0489,-3.0517,-3.0538,-3.0529,-3.0646,-3.0617,-3.0631,-3.0668,-3.0785,-3.079,-3.0795,-3.082,-3.083,-3.0839,0,0,0,0,0,0,-3.03,-3.0344,-3.0341,-3.0413,-3.0447,-3.0487,-3.0523,-3.0519,-3.056,-3.0556,-3.0567,-3.0576,-3.0642,-3.0662,-3.0628,-3.0742,-3.0712,-3.0721,-3.0727,-3.0736,-3.0744,-3.0738,-3.0605,0,0,0,0,0,-3.0312,-3.0358,-3.0394,-3.0454,-3.0472,-3.0494,-3.0521,-3.0526,-3.0562,-3.0576,-3.0601,-3.0636,-3.068,-3.0709,-3.0752,-3.0827,-3.0836,-3.0859,-3.0867,-3.0873,-3.088,-3.0921,-3.0932,-3.0815,-3.0815,-3.0815,0,0,-3.0339,-3.0368,-3.0396,-3.0459,-3.0486,-3.0532,-3.0507,-3.0557,-3.0591,-3.0584,-3.0647,-3.0667,-3.0706,-3.0776,-3.0808,-3.0794,-3.0915,-3.088,-3.0884,-3.0888,-3.0928,-3.0939,-3.0949,-3.0818,-3.0818,-3.0817,0,0,-3.041,-3.0437,-3.0491,-3.0519,-3.0561,-3.0576,-3.0589,-3.0629,-3.0642,-3.0706,-3.0701,-3.0742,-3.0819,-3.0847,-3.0872,-3.0956,-3.095,-3.0969,-3.1008,-3.1049,-3.1058,-3.1066,-3.1096,-3.1107,-3.0976,-3.0976,-3.0976,0,-3.0437,-3.0508,-3.0519,-3.057,-3.0598,-3.0594,-3.0648,-3.0675,-3.0728,-3.0747,-3.0731,-3.0828,-3.0854,-3.0931,-3.0952,-3.0972,-3.0987,-3.0964,-3.1056,-3.1064,-3.1072,-3.1101,-3.1112,-3.0978,-3.0978,-3.0978,-3.0978,0,-3.0539,-3.0588,-3.0626,-3.0679,-3.0711,-3.0764,-3.0783,-3.0814,-3.0817,-3.0834,-3.0899,-3.093,-3.098,-3.0999,-3.1002,-3.1077,-3.1067,-3.1053,-3.1024,-3.1085,-3.1113,-3.1124,-3.0982,-3.0981,-3.098,-3.098,0,0,-3.0624,-3.0683,-3.0697,-3.0721,-3.0767,-3.0805,-3.0858,-3.0907,-3.0933,-3.0971,-3.1015,-3.1081,-3.1069,-3.1096,-3.1103,-3.1138,-3.1203,-3.112,-3.1121,-3.1135,-3.1288,-3.1298,-3.1311,-3.12,-3.1202,-3.1204,-3.1285,0,-3.07,-3.0793,-3.0805,-3.0888,-3.0934,-3.0931,-3.0977,-3.1011,-3.1028,-3.1069,-3.1088,-3.1134,-3.1115,-3.1132,-3.1167,-3.1188,-3.1234,-3.1182,-3.1241,-3.1243,-3.1231,-3.1325,-3.1336,-3.1411,-3.1296,-3.1298,-3.1299,0,-3.0801,-3.0842,-3.093,-3.0971,-3.099,-3.1031,-3.1078,-3.1117,-3.1155,-3.1165,-3.1197,-3.1199,-3.1254,-3.1222,-3.1298,-3.1262,-3.1287,-3.1301,-3.1304,-3.131,-3.1275,-3.1334,-3.1436,-3.1447,-3.1316,-3.1315,-3.1313,0,-3.0854,-3.0931,-3.0994,-3.1015,-3.1064,-3.1093,-3.1115,-3.1151,-3.118,-3.122,-3.124,-3.1286,-3.1311,-3.1347,-3.1361,-3.1337,-3.1436,-3.1406,-3.1446,-3.1446,-3.1466,-3.1465,-3.1574,-3.1483,-3.1483,-3.1482,-3.1482,0,-3.0938,-3.0992,-3.1019,-3.1057,-3.1117,-3.1131,-3.119,-3.1211,-3.1243,-3.1286,-3.1286,-3.1326,-3.1343,-3.1386,-3.1397,-3.1458,-3.147,-3.1479,-3.1482,-3.1479,-3.1478,-3.1495,-3.1491,-3.1485,-3.1485,-3.1484,-3.1484,0,-3.1008,-3.1028,-3.1096,-3.1137,-3.1149,-3.1192,-3.1227,-3.1264,-3.1282,-3.1336,-3.1349,-3.1376,-3.1426,-3.1445,-3.1505,-3.1513,-3.1584,-3.1582,-3.1571,-3.1572,-3.1611,-3.1607,-3.1735,-3.1753,-3.165,-3.1651,-3.1651,0,-3.106,-3.1101,-3.1147,-3.1176,-3.1199,-3.1245,-3.1275,-3.1291,-3.1322,-3.1369,-3.1401,-3.1451,-3.1492,-3.1572,-3.1597,-3.1644,-3.1643,-3.1685,-3.165,-3.1647,-3.1644,-3.1641,-3.1646,-3.1691,-3.1692,-3.1693,-3.1694,0,-3.115,-3.1158,-3.1202,-3.1249,-3.1285,-3.1323,-3.136,-3.1383,-3.1404,-3.1439,-3.1491,-3.1523,-3.1585,-3.1635,-3.1683,-3.1706,-3.1703,-3.1704,-3.1716,-3.1714,-3.1706,-3.1711,-3.1589,-3.1701,-3.1701,-3.17,-3.17,-3.1699,-3.1213,-3.125,-3.1288,-3.1337,-3.1366,-3.1401,-3.1438,-3.1461,-3.1504,-3.1557,-3.1563,-3.1619,-3.1657,-3.1722,-3.1746,-3.179,-3.1779,-3.1796,-3.18,-3.1804,-3.1807,-3.17,-3.1799,-3.1799,-3.1798,-3.1798,-3.1798,0,-3.1303,-3.1328,-3.1373,-3.1425,-3.1463,-3.1458,-3.1499,-3.1531,-3.1581,-3.1616,-3.1657,-3.1717,-3.1766,-3.1795,-3.1844,-3.1873,-3.1874,-3.1886,-3.1884,-3.1889,-3.1814,-3.1799,-3.1885,-3.1885,-3.1885,-3.1885,-3.1885,-3.1885,-3.1355,-3.1418,-3.1431,-3.1508,-3.1533,-3.1588,-3.1611,-3.1643,-3.1672,-3.1739,-3.178,-3.1799,-3.1832,-3.1884,-3.1928,-3.1936,-3.1954,-3.1967,-3.1973,-3.1903,-3.1894,-3.1885,-3.1871,-3.1971,-3.1971,-3.2045,-3.2045,-3.2046]}]]